Dewpoint
25 24 22 22 19 18 17 15 14 13 13 13 14 15 15 17 16 17 17 17 17 16
25 24 23 21 19 17 15 13 12 12 13 14 15 15 15 14 14 16 17 18 18 18
24 23 20 18 16 14 12 11 12 13 13 14 14 15 15 14 16 16 17 17 18 18
20 18 15 14 12 11 10 11 12 13 13 14 14 14 13 14 16 18 18 19 18 18
15 13 12 10 10 10 11 12 12 13 14 13 14 13 12 15 18 19 19 18 18 18
12 11 10 10 11 11 12 12 13 14 13 13 13 12 12 16 19 20 20 19 18 17
11 11 11 12 12 12 12 13 14 14 13 13 12 11 13 20 21 21 20 20 19 18
12 13 13 13 12 12 14 14 14 13 13 13 11 10 20 23 22 22 20 20 19 19
14 14 13 12 11 14 14 14 13 12 13 13 11 18 22 22 22 22 20 19 19 20
14 12 11 10 11 13 13 13 12 12 12 12 12 20 21 22 22 21 20 20 20 20
13 10 9 9 11 12 13 12 11 11 12 13 13 20 20 22 22 21 21 21 21 21
10 8 8 10 11 12 12 11 11 12 13 13 16 19 21 22 21 21 20 20 21 21
8 7 9 11 12 12 12 11 11 13 15 16 15 19 21 21 20 20 19 21 20 23
8 10 11 12 12 12 12 12 13 15 15 16 17 18 20 21 20 20 21 20 19 18
Wind_Speed
21 21 19 18 17 14 14 12 11 10 8 8 6 5 4 4 3 2 1 2 4 6
18 21 20 17 15 14 14 12 11 9 8 7 6 5 4 3 3 2 2 5 5 6
19 19 18 16 17 15 14 13 11 9 8 6 5 4 3 3 2 4 5 5 7 8
20 20 18 17 15 15 14 12 11 9 7 5 4 3 3 3 3 5 7 7 7 10
21 20 20 18 15 14 14 11 10 8 6 4 4 3 3 4 5 6 8 8 10 12
20 20 19 18 15 13 13 11 9 7 6 4 3 3 3 5 6 5 5 7 11 13
19 19 18 16 14 13 12 11 8 6 5 3 4 4 5 6 6 5 5 8 11 12
17 17 17 16 14 13 11 9 7 6 4 4 5 5 9 8 7 7 8 11 12 12
18 17 16 15 14 12 10 8 6 5 4 5 5 9 11 12 10 8 10 14 14 15
17 17 15 14 13 11 8 6 5 4 5 6 7 10 12 13 10 9 12 15 17 16
17 17 14 13 11 9 6 4 3 5 4 6 6 12 13 14 11 11 13 16 17 17
16 16 14 12 10 6 4 4 4 3 5 8 8 12 14 15 12 13 15 16 16 14
15 15 13 11 8 4 4 3 3 5 5 7 9 12 15 15 12 14 17 16 14 15
14 14 11 9 6 5 4 4 5 6 7 7 8 11 15 16 15 16 16 17 17 18
Wind_Direction
146 146 146 151 150 142 135 133 130 123 118 111 100 89 69 53 38 22 337 298 284 293
140 140 143 143 137 132 128 127 127 126 116 103 91 75 56 30 4 354 332 313 306 293
138 133 134 136 134 131 126 126 127 119 110 99 85 64 33 11 357 341 333 319 305 304
134 133 132 132 131 128 126 126 120 117 108 95 76 43 23 357 337 324 316 319 323 317
131 132 130 131 129 129 123 116 116 111 103 88 61 33 359 330 315 317 325 334 333 325
133 133 132 130 128 124 121 115 109 105 93 68 27 360 320 299 308 312 322 332 330 322
137 134 131 127 125 122 118 113 107 93 80 47 357 327 311 303 306 307 314 326 321 313
132 127 125 123 120 116 108 103 99 92 59 13 343 329 322 319 321 315 313 316 310 306
130 128 125 123 119 111 106 100 90 66 32 3 341 325 329 330 326 316 309 311 308 303
130 126 124 122 118 113 105 102 77 36 16 351 329 331 334 330 324 314 309 309 308 307
128 125 124 120 116 111 100 86 51 26 352 334 337 337 332 326 321 312 308 302 303 299
131 128 125 119 112 105 97 61 30 346 351 345 329 335 331 328 321 313 310 305 296 295
128 126 120 117 113 96 74 39 9 359 348 325 330 333 332 329 318 319 316 311 311 308
116 115 118 114 97 88 63 26 3 341 341 338 334 326 329 331 328 319 315 320 321 320